Regional Weather Roundup
Issued by NWS

Home | Current Version | Previous Version | Text Only | Print | Product List | Glossary Off
Versions: 1 2 3 4 5 6 7 8 9 10 11 12 13 14 15 16 17 18 19 20 21 22 23 24 25 26 27 28 29 30 31 32 33 34 35 36 37 38 39 40 41 42 43 44 45 46 47 48 49 50

000
ASUS43 KLMK 250902
RWRKY
KENTUCKY REGIONAL WEATHER ROUNDUP
NATIONAL WEATHER SERVICE LOUISVILLE KY
400 AM EST SUN JAN 25 2015

NOTE "FAIR" INDICATES FEW OR NO CLOUDS BELOW 12,000 FEET
WITH NO SIGNIFICANT WEATHER AND/OR OBSTRUCTIONS TO VISIBILITY.

KYZ001>023-026-027-061>063-070>075-251000-
WESTERN AND SOUTH CENTRAL KENTUCKY

CITY           SKY/WX    TMP DP  RH WIND       PRES   REMARKS
PADUCAH        CLOUDY    42  31  64 VRB7      29.74F
HENDERSON      CLOUDY    43  30  61 S10       29.73F
OWENSBORO      CLOUDY    39  33  79 S8        29.77F WCI  33
HOPKINSVILLE   MOCLDY    40  32  71 S9        29.81F WCI  34
BOWLING GREEN  CLOUDY    38  30  73 S7        29.82F WCI  33
GLASGOW        NOT AVBL
$$

KYZ024-025-028>034-038-045-046-053-251000-
NORTH CENTRAL KENTUCKY

CITY           SKY/WX    TMP DP  RH WIND       PRES   REMARKS
LOUISVILLE/SDF CLOUDY    41  31  67 SW8       29.77F
LOUISVILLE/LOU CLOUDY    38  31  76 CALM      29.77F
FORT KNOX      CLOUDY    37  30  75 S9        29.76F WCI  31
$$

KYZ035>037-039>044-047>052-055>060-089>105-251000-
NORTHEAST KENTUCKY

CITY           SKY/WX    TMP DP  RH WIND       PRES   REMARKS
LEXINGTON      CLOUDY    35  30  82 S9        29.79F WCI  28
COVINGTON      CLOUDY    36  30  79 SW8       29.75F WCI  30
FRANKFORT      CLOUDY    36  30  79 S7        29.77F WCI  30
$$

KYZ054-064>069-076>088-106>120-251000-
SOUTHEAST KENTUCKY

CITY           SKY/WX    TMP DP  RH WIND       PRES   REMARKS
JACKSON        PTCLDY    34  30  85 SW5       29.81F WCI  30
LONDON         PTCLDY    34  26  72 S5        29.84F WCI  30
SOMERSET       NOT AVBL
MIDDLESBORO    PTCLDY    25  24  96 CALM      29.88F
MONTICELLO     SUNNY     39  31  73 SW8       29.87F WCI  33
$$



USA.gov is the U.S. government's official web portal to all federal, state and local government web resources and services.